TimeCST,TemperatureF,Dew PointF,Humidity,Sea Level PressureIn,VisibilityMPH,Wind Direction,Wind SpeedMPH,Gust SpeedMPH,PrecipitationIn,Events,Conditions,WindDirDegrees,DateUTC
12:56 AM,57.0,55.0,93,29.83,7.0,ENE,4.6,-,0.11,Rain-Thunderstorm,Light Thunderstorms and Rain,70,2013-02-25 06:56:00
1:12 AM,57.2,55.4,94,29.86,5.0,NE,5.8,-,0.01,Rain-Thunderstorm,Thunderstorms and Rain,50,2013-02-25 07:12:00
1:20 AM,57.2,55.4,94,29.83,4.0,ENE,9.2,-,0.01,Rain,Light Rain,60,2013-02-25 07:20:00
1:32 AM,57.2,55.4,94,29.84,7.0,NE,4.6,-,0.02,Rain,Light Rain,40,2013-02-25 07:32:00
1:51 AM,57.2,55.4,94,29.82,8.0,East,9.2,-,0.02,,Overcast,80,2013-02-25 07:51:00
1:56 AM,57.0,55.0,93,29.77,8.0,ENE,8.1,-,0.02,,Overcast,60,2013-02-25 07:56:00
2:12 AM,57.2,55.4,94,29.81,8.0,ENE,6.9,-,N/A,,Overcast,70,2013-02-25 08:12:00
2:45 AM,57.2,55.4,94,29.78,6.0,East,10.4,-,0.00,Rain-Thunderstorm,Light Thunderstorms and Rain,90,2013-02-25 08:45:00
2:56 AM,57.9,55.9,93,29.74,6.0,ENE,6.9,-,0.01,Rain-Thunderstorm,Thunderstorms and Rain,70,2013-02-25 08:56:00
3:56 AM,59.0,55.9,90,29.78,4.0,SE,8.1,-,0.15,Rain-Thunderstorm,Thunderstorms and Rain,130,2013-02-25 09:56:00
4:05 AM,57.2,57.2,100,29.82,4.0,ESE,6.9,-,0.02,Rain-Thunderstorm,Thunderstorms and Rain,120,2013-02-25 10:05:00
4:56 AM,57.9,57.0,97,29.73,2.0,NE,6.9,-,0.24,Rain-Thunderstorm,Heavy Thunderstorms and Rain,40,2013-02-25 10:56:00
5:08 AM,57.2,55.4,94,29.78,3.0,East,10.4,-,0.03,Rain-Thunderstorm,Thunderstorms and Rain,80,2013-02-25 11:08:00
5:35 AM,59.0,57.2,94,29.78,4.0,Variable,6.9,-,0.09,Rain-Thunderstorm,Light Thunderstorms and Rain,0,2013-02-25 11:35:00
5:56 AM,57.9,55.9,93,29.78,2.5,NW,11.5,-,0.20,Rain-Thunderstorm,Thunderstorms and Rain,320,2013-02-25 11:56:00
6:17 AM,57.2,57.2,100,29.84,2.0,Variable,5.8,-,0.28,Rain-Thunderstorm,Thunderstorms and Rain,0,2013-02-25 12:17:00
6:54 AM,57.2,57.2,100,29.83,2.5,NE,4.6,-,0.47,Rain,Rain,40,2013-02-25 12:54:00
6:56 AM,57.9,57.0,97,29.79,2.5,NE,11.5,-,0.48,Rain-Thunderstorm,Thunderstorms and Rain,50,2013-02-25 12:56:00
7:34 AM,57.2,55.4,94,29.84,3.0,East,10.4,-,N/A,Rain-Thunderstorm,Light Thunderstorms and Rain,80,2013-02-25 13:34:00
7:51 AM,59.0,55.4,88,29.80,3.0,NE,11.5,-,N/A,Rain,Light Rain,50,2013-02-25 13:51:00
7:56 AM,59.0,55.9,90,29.75,3.0,NE,15.0,23.0,N/A,Rain-Thunderstorm,Light Thunderstorms and Rain,50,2013-02-25 13:56:00
8:32 AM,60.8,57.2,88,29.81,6.0,ENE,13.8,-,0.07,Rain,Light Rain,70,2013-02-25 14:32:00
8:56 AM,60.1,57.0,90,29.77,4.0,East,13.8,-,0.14,Rain,Light Rain,80,2013-02-25 14:56:00
9:43 AM,60.8,57.2,88,29.82,5.0,East,10.4,-,N/A,Rain,Light Rain,80,2013-02-25 15:43:00
9:56 AM,61.0,57.9,90,29.77,6.0,East,13.8,-,N/A,Rain,Light Rain,100,2013-02-25 15:56:00
10:08 AM,60.8,57.2,88,29.82,6.0,ENE,9.2,25.3,0.00,Rain-Thunderstorm,Light Thunderstorms and Rain,70,2013-02-25 16:08:00
10:26 AM,60.8,57.2,88,29.81,6.0,East,16.1,21.9,0.00,Rain,Light Rain,100,2013-02-25 16:26:00
10:36 AM,60.8,57.2,88,29.79,10.0,ESE,16.1,24.2,0.00,,Overcast,110,2013-02-25 16:36:00
10:56 AM,63.0,60.1,90,29.75,7.0,East,11.5,19.6,0.00,Rain,Light Rain,80,2013-02-25 16:56:00
11:56 AM,63.0,57.0,81,29.73,7.0,East,19.6,24.2,0.01,Rain,Light Rain,100,2013-02-25 17:56:00
12:21 PM,64.4,57.2,77,29.76,10.0,East,16.1,21.9,0.00,,Mostly Cloudy,100,2013-02-25 18:21:00
12:56 PM,64.0,57.0,78,29.70,10.0,ESE,13.8,23.0,0.00,,Mostly Cloudy,110,2013-02-25 18:56:00
1:46 PM,64.4,55.4,73,29.71,10.0,East,13.8,21.9,0.00,Rain,Light Rain,100,2013-02-25 19:46:00
1:56 PM,64.9,57.0,75,29.67,10.0,ESE,15.0,23.0,0.00,,Mostly Cloudy,110,2013-02-25 19:56:00
2:56 PM,66.9,57.9,73,29.66,10.0,ESE,8.1,-,N/A,,Mostly Cloudy,110,2013-02-25 20:56:00
3:56 PM,64.9,57.0,75,29.66,10.0,ESE,12.7,19.6,0.00,Rain,Light Rain,120,2013-02-25 21:56:00
4:36 PM,64.4,57.2,77,29.69,10.0,ESE,8.1,-,0.00,,Overcast,110,2013-02-25 22:36:00
4:56 PM,63.0,57.0,81,29.65,10.0,ESE,10.4,-,0.00,,Overcast,110,2013-02-25 22:56:00
5:17 PM,62.6,57.2,82,29.67,1.0,ESE,13.8,-,0.02,Rain,Heavy Rain,110,2013-02-25 23:17:00
5:40 PM,60.8,57.2,88,29.65,10.0,ESE,12.7,-,0.03,,Overcast,110,2013-02-25 23:40:00
5:56 PM,61.0,57.9,90,29.61,10.0,East,13.8,-,0.03,,Overcast,100,2013-02-25 23:56:00
6:09 PM,60.8,57.2,88,29.63,9.0,East,12.7,-,0.00,Rain,Light Rain,100,2013-02-26 00:09:00
6:56 PM,62.1,59.0,90,29.58,10.0,ESE,11.5,20.7,0.01,Rain,Light Rain,120,2013-02-26 00:56:00
7:36 PM,62.6,59.0,88,29.62,5.0,ESE,12.7,-,0.02,Rain-Thunderstorm,Thunderstorms and Rain,120,2013-02-26 01:36:00
7:56 PM,62.1,59.0,90,29.58,10.0,ESE,11.5,-,0.06,Rain-Thunderstorm,Light Thunderstorms and Rain,120,2013-02-26 01:56:00
8:16 PM,62.6,60.8,94,29.62,8.0,ESE,9.2,-,0.01,Rain,Light Rain,120,2013-02-26 02:16:00
8:56 PM,62.1,60.1,93,29.58,5.0,SE,16.1,-,0.04,Rain,Light Rain,130,2013-02-26 02:56:00
9:56 PM,64.0,62.1,93,29.55,9.0,SE,18.4,26.5,N/A,Rain,Light Rain,140,2013-02-26 03:56:00
10:56 PM,64.9,62.1,90,29.52,3.0,SSE,15.0,25.3,N/A,Rain,Heavy Rain,150,2013-02-26 04:56:00
10:59 PM,64.4,62.6,94,29.57,2.5,SSE,15.0,25.3,0.01,Rain,Heavy Rain,150,2013-02-26 04:59:00
11:06 PM,64.4,62.6,94,29.57,4.0,SE,18.4,26.5,0.03,Rain,Rain,140,2013-02-26 05:06:00
11:13 PM,64.4,62.6,94,29.56,3.0,SSE,16.1,26.5,0.06,Rain,Rain,150,2013-02-26 05:13:00
11:20 PM,64.4,62.6,94,29.55,4.0,SSE,19.6,26.5,0.08,Rain,Rain,150,2013-02-26 05:20:00
11:56 PM,66.0,63.0,90,29.51,3.0,SSE,13.8,24.2,0.23,Rain,Rain,160,2013-02-26 05:56:00